| time (UTC) | temp C | wind direction | speed KPH | gust KPH | rain 1hr cm | rain 24hr cm | rain mn cm | humidity % | barometer mb |
| 20260505170030 | 27 | 248 | 3.2 | 8.0 | 0.00 | 0.00 | 0.00 | 43 | 1002.4 |
| 20260505164555 | 26 | 255 | 4.8 | 9.7 | 0.00 | 0.00 | 0.00 | 45 | 1002.7 |
| 20260505163030 | 26 | 249 | 3.2 | 12.9 | 0.00 | 0.00 | 0.00 | 45 | 1002.7 |
| 20260505161536 | 26 | 249 | 3.2 | 12.9 | 0.00 | 0.00 | 0.00 | 44 | 1002.8 |
| 20260505153003 | 26 | 251 | 1.6 | 8.0 | 0.00 | 0.00 | 0.00 | 44 | 1003.2 |
| 20260505151604 | 25 | 257 | 0.0 | 6.4 | 0.00 | 0.00 | 0.00 | 49 | 1003.2 |
| 20260505124518 | 18 | 253 | 8.0 | 22.5 | 0.00 | 0.00 | 0.00 | 61 | 1003.8 |
| 20260505123043 | 18 | 257 | 3.2 | 6.4 | 0.00 | 0.00 | 0.00 | 62 | 1003.7 |
| 20260505121550 | 18 | 254 | 0.0 | 8.0 | 0.00 | 0.00 | 0.00 | 64 | 1003.6 |
| 20260505120111 | 17 | 299 | 4.8 | 17.7 | 0.00 | 0.00 | 0.00 | 66 | 1003.7 |
| 20260505114542 | 17 | 273 | 0.0 | 12.9 | 0.00 | 0.00 | 0.00 | 69 | 1003.7 |
| 20260505113054 | 17 | 274 | 1.6 | 11.3 | 0.00 | 0.00 | 0.00 | 70 | 1003.7 |
| 20260505111503 | 16 | 256 | 1.6 | 4.8 | 0.00 | 0.00 | 0.00 | 71 | 1003.3 |
| 20260505101527 | 16 | 275 | 0.0 | 4.8 | 0.00 | 0.00 | 0.00 | 73 | 1003.0 |
| 20260505100052 | 16 | 303 | 1.6 | 8.0 | 0.00 | 0.00 | 0.00 | 72 | 1002.9 |
| 20260505094514 | 16 | 269 | 0.0 | 3.2 | 0.00 | 0.00 | 0.00 | 72 | 1002.8 |
| 20260505093044 | 15 | 271 | 0.0 | 4.8 | 0.00 | 0.00 | 0.00 | 73 | 1002.7 |
| 20260505091523 | 15 | 263 | 0.0 | 4.8 | 0.00 | 0.00 | 0.00 | 75 | 1002.7 |
| 20260505090014 | 14 | 282 | 0.0 | 0.0 | 0.00 | 0.00 | 0.00 | 77 | 1002.5 |
| 20260505084536 | 14 | 281 | 0.0 | 0.0 | 0.00 | 0.00 | 0.00 | 76 | 1002.7 |
| 20260505083103 | 15 | 281 | 0.0 | 0.0 | 0.00 | 0.00 | 0.00 | 74 | 1002.7 |
| 20260505081524 | 15 | 282 | 0.0 | 0.0 | 0.00 | 0.00 | 0.00 | 72 | 1002.5 |
| 20260505080052 | 15 | 281 | 0.0 | 0.0 | 0.00 | 0.00 | 0.00 | 72 | 1002.7 |
| 20260505074513 | 16 | 284 | 0.0 | 4.8 | 0.00 | 0.00 | 0.00 | 70 | 1002.7 |
| 20260505073059 | 16 | 292 | 0.0 | 4.8 | 0.00 | 0.00 | 0.00 | 70 | 1002.8 |
| 20260505071515 | 16 | 258 | 0.0 | 6.4 | 0.00 | 0.00 | 0.00 | 69 | 1002.7 |
| 20260505070025 | 16 | 257 | 3.2 | 9.7 | 0.00 | 0.00 | 0.00 | 67 | 1002.7 |
| 20260505064549 | 16 | 294 | 1.6 | 9.7 | 0.00 | 0.00 | 0.00 | 68 | 1002.6 |
| 20260505063015 | 16 | 289 | 1.6 | 14.5 | 0.00 | 0.00 | 0.00 | 69 | 1002.4 |
| 20260505061546 | 16 | 280 | 0.0 | 9.7 | 0.00 | 0.00 | 0.00 | 68 | 1002.7 |
| 20260505060046 | 16 | 259 | 1.6 | 6.4 | 0.00 | 0.00 | 0.00 | 67 | 1002.7 |
| 20260505054512 | 16 | 273 | 0.0 | 4.8 | 0.00 | 0.00 | 0.00 | 68 | 1002.6 |
| 20260505053035 | 16 | 266 | 0.0 | 6.4 | 0.00 | 0.00 | 0.00 | 67 | 1002.7 |
| 20260505051503 | 16 | 273 | 0.0 | 1.6 | 0.00 | 0.00 | 0.00 | 67 | 1002.8 |
| 20260505041531 | 16 | 275 | 0.0 | 1.6 | 0.00 | 0.00 | 0.00 | 64 | 1002.7 |
| 20260505040048 | 16 | 277 | 0.0 | 4.8 | 0.00 | 0.00 | 0.00 | 63 | 1002.7 |
| 20260505034514 | 16 | 261 | 0.0 | 3.2 | 0.00 | 0.00 | 0.00 | 59 | 1002.7 |
| 20260505033020 | 16 | 261 | 0.0 | 0.0 | 0.00 | 0.00 | 0.00 | 57 | 1002.7 |
| 20260505031542 | 16 | 261 | 0.0 | 0.0 | 0.00 | 0.00 | 0.00 | 56 | 1002.8 |
| 20260505030047 | 16 | 261 | 0.0 | 1.6 | 0.00 | 0.00 | 0.00 | 55 | 1002.8 |
| 20260505024515 | 17 | 261 | 0.0 | 1.6 | 0.00 | 0.00 | 0.00 | 52 | 1002.9 |
| 20260505023027 | 17 | 261 | 0.0 | 3.2 | 0.00 | 0.00 | 0.00 | 50 | 1003.0 |
| 20260505021544 | 17 | 270 | 0.0 | 4.8 | 0.00 | 0.00 | 0.00 | 51 | 1003.0 |
| 20260505014520 | 17 | 278 | 0.0 | 0.0 | 0.00 | 0.00 | 0.00 | 53 | 1002.9 |
| 20260505013004 | 17 | 278 | 0.0 | 4.8 | 0.00 | 0.00 | 0.00 | 52 | 1003.0 |
| 20260505011536 | 17 | 280 | 0.0 | 0.0 | 0.00 | 0.00 | 0.00 | 51 | 1002.8 |
| 20260505010003 | 17 | 280 | 0.0 | 0.0 | 0.00 | 0.00 | 0.00 | 49 | 1002.6 |
| 20260505004534 | 18 | 280 | 0.0 | 0.0 | 0.00 | 0.00 | 0.00 | 47 | 1002.4 |
| 20260505003043 | 18 | 280 | 0.0 | 0.0 | 0.00 | 0.00 | 0.00 | 45 | 1002.4 |
| 20260505001508 | 20 | 280 | 0.0 | 0.0 | 0.00 | 0.00 | 0.00 | 43 | 1002.2 |
| 20260505000044 | 20 | 280 | 0.0 | 4.8 | 0.00 | 0.00 | 0.00 | 41 | 1002.1 |
| 20260504234555 | 21 | 256 | 1.6 | 4.8 | 0.00 | 0.00 | 0.00 | 40 | 1002.1 |
| 20260504233018 | 21 | 251 | 0.0 | 8.0 | 0.00 | 0.00 | 0.00 | 38 | 1001.9 |
| 20260504231540 | 22 | 261 | 1.6 | 9.7 | 0.00 | 0.00 | 0.00 | 37 | 1001.9 |
| 20260504230005 | 22 | 258 | 3.2 | 9.7 | 0.00 | 0.00 | 0.00 | 36 | 1001.8 |
| 20260504224535 | 22 | 292 | 6.4 | 14.5 | 0.00 | 0.00 | 0.00 | 36 | 1001.8 |
| 20260504223005 | 22 | 319 | 4.8 | 11.3 | 0.00 | 0.00 | 0.00 | 34 | 1002.0 |
| 20260504221527 | 22 | 254 | 4.8 | 11.3 | 0.00 | 0.00 | 0.00 | 34 | 1002.0 |
| 20260504220059 | 22 | 251 | 3.2 | 14.5 | 0.00 | 0.00 | 0.00 | 35 | 1002.0 |
| 20260504214526 | 22 | 270 | 3.2 | 17.7 | 0.00 | 0.00 | 0.00 | 36 | 1002.2 |
| 20260504213107 | 22 | 264 | 6.4 | 17.7 | 0.00 | 0.00 | 0.00 | 35 | 1002.2 |
| 20260504211519 | 23 | 316 | 3.2 | 12.9 | 0.00 | 0.00 | 0.00 | 34 | 1002.3 |
| 20260504210055 | 22 | 292 | 4.8 | 16.1 | 0.00 | 0.00 | 0.00 | 35 | 1002.2 |
| 20260504204511 | 22 | 284 | 9.7 | 20.9 | 0.00 | 0.00 | 0.00 | 34 | 1002.4 |
| 20260504203039 | 22 | 303 | 12.9 | 25.7 | 0.00 | 0.00 | 0.00 | 35 | 1002.2 |
| 20260504201507 | 22 | 254 | 3.2 | 19.3 | 0.00 | 0.00 | 0.00 | 34 | 1002.3 |
| 20260504200024 | 22 | 318 | 3.2 | 9.7 | 0.00 | 0.00 | 0.00 | 34 | 1002.3 |
| 20260504194528 | 22 | 260 | 4.8 | 16.1 | 0.00 | 0.00 | 0.00 | 34 | 1002.5 |
| 20260504193042 | 22 | 278 | 4.8 | 22.5 | 0.00 | 0.00 | 0.00 | 36 | 1002.5 |
| 20260504191611 | 22 | 242 | 4.8 | 17.7 | 0.00 | 0.00 | 0.00 | 35 | 1002.7 |
| 20260504190045 | 22 | 266 | 4.8 | 20.9 | 0.00 | 0.00 | 0.00 | 37 | 1003.1 |
| 20260504184502 | 21 | 275 | 4.8 | 17.7 | 0.00 | 0.00 | 0.00 | 36 | 1003.2 |
| 20260504183022 | 21 | 292 | 6.4 | 24.1 | 0.00 | 0.00 | 0.00 | 37 | 1003.5 |
| 20260504181545 | 21 | 254 | 8.0 | 17.7 | 0.00 | 0.00 | 0.00 | 35 | 1003.7 |
| 20260504180117 | 21 | 260 | 6.4 | 20.9 | 0.00 | 0.00 | 0.00 | 36 | 1003.9 |
| 20260504174516 | 21 | 297 | 8.0 | 20.9 | 0.00 | 0.00 | 0.00 | 36 | 1004.0 |
| 20260504173039 | 21 | 260 | 4.8 | 22.5 | 0.00 | 0.00 | 0.00 | 36 | 1004.2 |
| 20260504171504 | 20 | 256 | 4.8 | 16.1 | 0.00 | 0.00 | 0.00 | 37 | 1004.4 |